Theta_e
315 315 315 313 308 303 299 299 298 299 300 300 301 302 303 304 304 305 307 307 313 315 309 308 308 310 310 311 314 309 309 308 308 311 317 317 317 313 312 312 312 312 313 312 311 313 312 308 306 308 309 309 308 307
315 315 315 313 311 302 298 298 298 299 300 301 302 302 303 303 303 304 304 304 305 312 313 308 308 308 309 308 310 309 311 311 311 312 315 318 316 314 313 314 311 311 310 312 313 313 311 309 308 309 307 306 306 306
315 314 313 312 307 298 298 298 298 299 300 301 302 302 302 302 303 303 303 303 304 308 309 308 309 307 307 308 309 310 310 309 309 308 310 314 315 312 314 313 312 310 310 309 309 310 309 308 307 305 305 305 305 305
314 314 314 310 302 297 297 297 298 299 299 300 301 301 301 301 301 301 302 302 304 307 310 310 308 308 307 307 308 308 306 306 307 307 309 316 314 312 311 310 309 309 308 308 307 307 307 306 305 305 305 305 305 305
314 314 313 304 297 297 296 297 298 298 298 299 300 300 300 300 299 299 299 300 301 308 313 310 307 305 306 306 306 307 306 305 307 308 309 313 310 310 310 308 308 308 307 307 307 305 304 304 304 304 304 304 304 303
314 313 310 298 296 296 296 296 297 298 298 298 298 299 300 299 297 298 303 302 301 301 307 314 307 304 303 304 304 305 306 306 307 308 309 309 306 307 308 309 309 308 307 305 305 304 304 304 304 303 303 303 303 303
314 311 302 296 296 295 296 296 297 297 296 296 296 295 297 297 297 304 308 305 303 301 306 309 308 304 303 303 304 304 304 306 306 307 307 308 307 305 309 308 307 307 306 304 304 304 303 303 304 304 303 302 302 301
314 306 296 295 295 295 295 295 296 296 296 296 296 295 295 295 296 301 301 302 300 299 301 306 308 304 302 305 305 304 305 305 305 306 305 306 305 305 305 306 306 306 304 304 305 303 303 304 303 303 302 302 301 301
312 299 296 295 295 295 295 296 296 296 295 296 296 295 296 301 304 299 297 297 299 304 303 303 306 310 303 304 304 304 304 307 304 305 305 304 305 304 305 305 305 305 304 304 303 303 303 303 303 303 303 302 301 301
305 296 295 294 294 294 295 295 295 295 296 296 296 303 303 300 299 299 300 304 304 304 303 305 304 306 304 305 306 305 303 305 305 303 302 303 303 303 303 304 304 304 304 304 302 302 303 303 303 303 302 301 300 300
298 296 295 294 294 294 294 295 295 296 297 298 302 302 301 300 302 303 304 303 303 302 303 303 303 304 302 305 306 304 304 302 303 302 302 302 302 303 303 304 304 304 304 302 302 302 302 303 303 302 301 301 300 300
295 295 294 294 293 294 295 295 297 297 298 302 301 300 301 302 302 303 304 303 301 303 302 302 302 303 302 302 304 302 302 300 301 302 301 301 302 303 303 304 304 304 303 302 302 301 301 301 302 302 301 300 301 300
295 294 294 293 293 294 295 297 298 299 299 299 301 301 301 300 301 302 302 302 303 301 302 301 301 301 301 302 302 301 301 301 301 301 301 301 303 303 303 303 303 303 303 302 302 302 301 300 300 301 302 300 300 299
294 293 293 293 294 295 298 299 299 298 300 300 299 297 301 300 301 303 303 304 303 302 301 301 300 301 301 301 301 302 302 302 302 302 301 301 303 302 302 302 302 301 300 301 302 302 301 300 300 300 301 300 299 299
293 293 293 294 297 300 299 299 298 300 301 299 300 301 300 301 301 302 301 302 303 301 301 301 300 300 300 300 300 300 301 300 300 301 302 303 302 301 300 301 301 301 301 300 300 300 300 300 300 300 300 300 299 299
292 294 297 300 300 300 300 299 299 300 300 299 299 301 301 301 301 300 300 301 302 302 301 302 300 300 300 301 301 300 301 301 301 301 302 301 301 300 300 300 300 300 300 300 300 300 300 300 300 300 300 300 299 299
295 299 299 300 300 300 299 299 299 299 298 298 298 299 300 300 301 300 300 301 302 301 302 302 301 300 301 300 301 300 301 300 301 301 301 300 301 301 301 301 301 301 300 300 300 300 300 300 300 300 300 300 299 299
298 298 300 301 300 299 299 299 300 299 297 298 298 299 300 300 300 300 300 301 301 302 302 303 302 302 300 299 300 300 300 300 300 301 301 301 301 301 301 301 301 301 300 300 300 300 300 300 300 300 300 299 299 299
298 300 300 300 300 300 300 300 299 298 298 298 299 300 300 300 299 300 300 300 301 301 301 301 300 301 300 300 300 300 300 300 300 301 302 302 302 301 301 301 301 301 301 300 300 300 300 300 300 299 299 299 299 299
299 300 300 300 300 299 299 298 298 297 298 298 299 300 300 300 299 299 299 300 300 300 300 300 300 299 299 300 300 300 300 300 301 301 301 301 301 301 301 301 301 300 300 300 300 300 300 300 300 299 299 299 299 298
299 300 300 300 299 298 298 297 297 298 299 299 299 299 300 299 299 299 299 299 299 300 299 299 298 298 298 299 299 299 299 300 300 300 301 301 301 301 300 300 300 300 300 300 300 300 300 300 300 299 299 299 299 299
300 299 299 299 298 298 297 297 297 297 298 299 299 299 299 299 299 299 299 299 299 299 298 298 299 299 299 299 299 300 300 300 301 300 300 300 300 300 300 300 300 300 300 300 299 299 299 299 299 299 299 299 299 298
298 298 298 298 297 296 297 296 296 296 297 297 298 298 299 299 299 299 299 299 299 298 299 299 299 299 299 299 299 299 300 300 300 300 300 300 300 300 300 300 300 299 299 299 298 298 297 297 297 297 298 299 298 298
297 298 297 296 296 297 296 297 297 297 298 298 298 298 299 299 299 299 299 298 299 299 299 299 299 300 300 300 300 300 301 301 300 300 300 300 299 299 299 299 299 298 298 297 297 297 296 296 296 296 297 297 297 297
296 295 296 297 296 296 297 297 297 298 298 298 299 298 299 298 299 299 299 298 298 299 299 299 300 300 300 301 301 301 300 300 300 300 299 298 298 298 297 297 297 296 296 296 295 295 295 295 295 296 296 295 296 296
295 295 296 296 296 297 297 297 297 298 298 298 298 297 299 299 298 298 299 299 299 300 301 300 300 300 301 301 300 300 299 299 299 298 297 296 296 296 295 296 295 295 295 294 294 294 294 294 294 295 295 296 295 295
297 298 296 297 296 297 297 297 297 297 297 298 298 298 299 297 298 299 300 300 300 300 299 299 299 299 298 298 298 297 297 297 297 296 295 295 295 295 295 295 295 294 294 293 293 293 294 294 294 294 294 295 295 295
297 297 297 297 298 298 298 298 297 298 298 298 299 299 298 298 299 300 300 300 299 299 299 300 299 299 299 298 297 297 297 296 295 294 294 295 295 294 294 294 294 293 293 293 293 294 294 294 293 293 294 295 295 295
297 298 297 297 297 297 298 298 298 298 298 299 299 299 299 299 300 300 300 299 299 299 298 299 299 298 297 297 296 296 295 294 293 294 294 294 294 294 293 292 292 292 293 293 292 293 293 293 294 294 294 294 295 295
297 298 298 297 297 297 298 298 299 299 299 299 299 299 299 300 299 299 299 299 299 298 298 298 298 297 296 296 295 295 294 293 292 292 292 292 292 291 291 290 290 290 290 293 292 292 291 292 293 293 293 293 293 292
297 298 298 298 298 297 297 298 298 299 300 299 299 299 299 299 299 299 299 299 298 298 298 297 297 296 295 295 294 294 293 292 292 291 291 290 290 290 290 290 290 289 290 291 291 291 291 292 291 292 292 292 292 292
298 298 298 299 299 298 298 298 298 297 297 297 297 297 297 297 297 298 298 298 298 298 297 296 295 294 293 294 293 292 292 291 291 289 289 289 289 289 289 289 289 289 289 290 291 291 291 291 291 291 291 291 291 291
297 298 298 298 296 295 295 296 296 297 297 296 297 297 297 297 297 297 297 296 297 295 295 294 293 292 292 292 291 291 291 290 290 289 288 288 289 290 289 289 289 289 290 290 290 290 290 290 290 291 290 291 291 291
Wind_Speed
28 25 21 18 13 12 10 10 9 8 7 6 4 4 3 2 2 3 2 3 5 4 3 3 3 3 1 1 2 8 5 3 3 2 1 3 1 0 3 3 6 6 5 4 3 3 5 7 3 1 8 21 16 14
31 27 25 20 16 14 13 12 11 9 7 6 4 3 2 1 2 2 3 3 4 4 3 5 3 5 5 5 3 9 3 3 4 3 2 2 1 1 2 3 3 2 5 1 2 4 5 5 9 13 13 17 19 23
34 29 27 21 19 17 16 14 13 10 8 7 5 4 3 3 2 2 3 4 6 5 4 3 2 5 9 8 6 2 4 1 3 1 5 3 2 3 2 4 5 5 10 3 3 2 11 18 18 24 23 24 26 26
36 32 27 24 21 20 18 16 14 11 9 7 5 4 3 3 3 3 4 5 7 5 1 3 4 5 6 10 11 12 6 3 2 1 2 2 1 5 2 3 1 4 11 3 7 12 12 12 21 27 31 31 29 28
37 34 30 26 24 23 20 17 13 10 8 7 6 5 4 3 3 3 4 5 7 5 1 6 4 2 5 3 3 6 9 5 2 3 3 2 4 3 5 3 3 8 5 4 4 13 11 16 22 23 25 26 25 27
40 35 31 30 28 25 22 18 15 13 11 9 7 6 4 4 4 4 0 1 6 9 6 2 3 2 1 2 2 3 5 5 5 2 2 3 4 2 1 3 6 12 12 6 5 11 12 19 18 23 25 26 26 25
42 35 33 32 29 27 23 20 16 14 11 10 9 7 6 5 6 4 3 5 8 7 4 3 3 1 3 5 4 2 4 3 4 4 3 3 4 6 2 4 3 11 10 6 5 8 14 16 22 23 24 25 24 24
42 37 36 34 31 28 24 20 16 14 11 9 8 7 7 7 7 3 6 7 5 2 2 2 2 3 3 4 4 4 4 3 4 1 3 2 4 3 4 13 15 9 4 6 4 10 13 15 20 21 23 24 23 20
43 40 39 36 32 28 24 20 17 16 14 12 11 11 10 5 2 4 4 5 4 1 2 1 3 3 5 4 4 3 0 2 2 2 1 1 3 5 7 10 12 9 4 3 8 11 12 16 19 21 23 24 21 18
45 43 40 36 32 28 25 21 20 18 17 17 16 6 4 5 12 9 1 2 1 1 0 2 1 2 1 3 2 6 2 2 1 3 2 2 5 27 24 22 16 8 5 6 9 12 14 17 18 20 22 21 19 18
47 45 41 37 33 29 26 25 23 24 23 12 6 4 11 11 3 2 2 2 2 1 4 3 6 3 3 2 3 5 1 2 2 3 2 2 3 9 11 13 11 12 11 8 9 11 14 16 18 19 22 21 18 18
49 46 41 37 33 31 29 27 27 25 14 11 12 18 9 3 2 1 2 2 2 2 5 3 3 2 3 3 4 3 1 1 2 6 1 4 5 15 5 7 10 10 9 10 11 14 16 18 19 21 22 23 22 20
50 46 41 37 34 33 31 30 28 19 22 20 7 5 4 2 3 4 5 3 3 5 7 7 5 5 3 1 2 3 3 4 1 2 3 4 13 4 2 7 8 11 13 16 16 18 21 22 20 22 24 25 22 19
49 45 41 38 36 34 32 31 27 30 8 4 6 5 5 4 5 4 2 3 5 9 13 12 6 3 3 3 2 3 2 1 2 3 5 5 11 2 0 5 7 11 13 17 23 21 22 22 23 24 25 23 24 20
47 43 40 38 37 35 34 31 32 19 4 4 5 5 5 5 2 3 6 8 7 16 15 10 4 2 2 2 3 2 3 4 5 4 3 8 11 13 14 14 15 17 20 21 22 24 24 25 25 26 25 23 23 21
46 40 39 39 38 36 33 31 27 8 4 4 4 3 4 5 8 8 8 9 11 16 13 5 4 3 4 3 4 6 4 6 3 5 8 13 17 19 22 23 22 22 22 24 25 25 26 25 25 24 24 24 21 20
49 35 43 40 38 35 33 27 13 4 3 4 4 9 8 6 10 13 13 14 16 17 5 4 6 6 6 3 4 4 4 4 13 13 17 19 23 27 19 18 19 20 22 23 25 26 26 25 25 23 26 25 22 21
35 46 47 43 41 37 25 10 6 6 4 5 4 9 14 6 6 14 11 18 16 13 13 4 5 5 5 5 4 5 13 17 19 24 25 24 26 25 20 21 22 24 27 28 28 26 26 26 26 26 27 26 24 21
42 50 47 45 43 26 7 8 6 6 5 6 13 7 15 12 9 9 10 13 14 10 4 4 4 3 8 12 18 22 25 24 27 29 23 20 22 26 26 27 26 25 25 25 25 25 24 25 26 26 28 27 28 23
43 48 46 44 36 7 6 5 9 5 7 9 10 13 9 7 12 11 13 13 14 7 8 5 7 18 16 19 22 25 24 26 27 30 31 27 24 24 25 24 25 26 26 26 25 25 25 26 26 24 25 24 24 23
46 43 43 38 14 7 6 7 6 5 7 6 14 13 8 12 15 14 16 13 10 7 10 19 27 33 35 35 34 35 36 30 28 29 32 31 27 25 26 27 27 25 24 23 22 23 23 25 25 22 21 23 23 21
39 41 36 22 4 6 4 8 7 10 5 3 10 12 6 10 9 12 14 14 10 26 30 29 30 31 30 31 32 29 28 26 25 26 28 28 28 26 25 24 23 23 23 23 24 24 24 24 22 21 21 21 20 17
39 31 17 7 4 6 3 16 6 10 4 8 9 5 4 6 9 10 7 11 20 30 27 30 34 33 32 32 31 30 29 28 27 26 25 24 22 21 21 21 20 21 21 23 21 23 25 24 25 22 20 19 17 18
27 10 5 8 6 6 9 6 8 7 8 6 4 4 4 9 10 7 3 15 31 25 23 26 24 25 25 23 23 23 22 20 21 20 19 18 20 20 18 19 18 18 18 19 20 23 21 20 17 17 18 17 16 17
8 6 6 5 7 6 6 6 5 4 4 4 5 3 3 7 4 4 4 11 17 20 21 20 20 22 22 21 20 17 14 16 18 20 20 15 16 18 18 16 15 14 15 19 20 18 18 20 19 16 16 17 17 19
4 10 10 12 8 6 6 5 7 5 4 5 5 5 6 3 4 5 4 10 13 11 10 11 14 15 16 16 17 15 14 18 15 13 12 11 12 14 15 13 14 14 14 15 17 18 19 20 20 19 15 16 18 17
6 5 8 8 9 9 4 6 11 5 6 6 4 4 3 4 6 5 9 10 12 14 14 7 6 9 11 13 13 12 12 11 12 13 12 12 12 12 10 9 10 12 14 13 14 16 18 19 20 18 14 12 14 15
4 10 7 14 9 14 3 4 6 7 4 6 7 5 6 7 5 6 10 10 9 11 11 9 8 9 12 14 12 11 11 11 10 8 7 6 5 6 8 7 9 12 10 12 14 14 15 16 15 10 7 8 9 9
6 11 13 6 5 5 7 6 6 10 13 14 4 5 6 10 14 15 16 14 14 16 17 14 12 11 13 12 11 11 10 8 6 5 5 3 5 7 11 11 8 8 9 8 10 12 11 12 11 8 6 6 7 8
9 18 10 12 5 8 12 15 12 19 22 24 23 17 18 20 19 19 19 20 19 18 17 15 14 14 12 10 9 10 8 8 7 8 6 7 8 7 7 10 12 11 9 6 7 7 10 10 9 7 4 1 3 6
11 19 8 13 7 14 20 18 23 20 19 24 26 24 22 16 21 23 21 20 19 18 19 18 16 15 14 13 12 11 12 12 8 7 7 7 7 7 7 8 9 10 9 7 5 6 7 8 7 6 4 2 2 5
15 13 10 6 5 12 16 19 15 13 13 12 11 13 10 7 7 14 17 18 19 19 18 15 14 11 12 12 12 11 11 9 8 8 7 9 10 9 8 8 8 8 8 8 7 5 6 5 5 4 2 2 3 6
7 8 7 8 3 6 10 9 10 5 7 6 8 14 15 8 8 9 11 12 14 12 12 11 12 13 11 9 8 8 8 7 8 9 11 11 10 10 8 7 8 6 6 6 4 4 4 4 3 4 3 2 4 5
Wind_Direction
205 205 209 215 212 224 232 224 214 206 198 193 183 168 167 172 170 169 150 161 151 94 129 92 122 114 108 269 189 127 134 189 165 254 246 209 212 45 335 281 167 170 174 197 197 225 268 118 101 271 288 312 321 350
205 206 209 213 218 222 216 210 207 202 199 190 191 198 196 188 187 178 147 127 146 143 150 194 185 183 182 135 115 172 17 141 214 221 198 27 20 222 272 264 68 237 215 223 196 207 305 237 245 338 3 349 330 316
206 207 213 211 215 214 206 199 202 204 210 214 205 211 216 225 220 202 158 144 139 113 96 118 174 205 212 208 189 148 188 84 65 11 353 14 257 353 255 242 258 225 218 205 13 267 320 319 345 343 334 325 318 312
207 208 217 211 208 204 198 194 198 207 216 225 221 222 225 235 230 220 196 162 158 156 145 192 233 239 231 241 237 215 190 162 143 61 286 132 199 239 256 314 304 304 323 260 264 297 304 349 340 328 321 317 316 314
208 210 212 208 199 196 193 196 195 206 220 240 247 243 229 222 209 192 183 178 187 153 116 134 175 254 242 237 211 212 215 189 196 200 207 195 228 276 322 297 229 227 256 250 281 9 348 329 318 319 324 318 314 313
208 214 206 201 194 190 190 194 193 201 208 217 226 231 233 220 181 173 14 159 176 177 135 143 200 202 285 119 151 146 151 174 199 212 219 277 125 105 36 283 259 268 290 30 349 331 319 315 321 325 325 322 317 311
208 211 202 195 190 189 189 192 193 198 203 204 201 186 180 189 196 164 206 154 141 154 128 128 189 216 134 142 107 97 153 154 189 221 213 234 205 183 204 239 252 292 320 339 316 325 330 330 325 330 327 322 314 312
205 205 195 190 189 188 188 189 188 191 194 189 183 173 149 139 140 147 170 159 173 168 167 136 148 159 145 157 133 129 147 153 196 295 134 244 172 214 252 244 272 265 274 270 298 321 311 318 328 330 334 330 324 319
202 195 189 188 188 187 186 186 184 184 176 165 149 137 122 113 145 151 173 184 186 142 114 133 158 163 124 90 88 90 131 181 89 331 245 221 187 223 234 253 261 250 251 300 309 313 318 327 331 331 329 332 328 323
194 188 186 186 186 184 183 180 176 168 161 149 137 89 96 130 126 128 84 74 80 322 18 254 129 105 79 156 101 135 110 65 214 180 130 241 261 257 256 248 257 264 258 277 302 314 318 318 324 326 328 325 323 316
187 183 182 183 184 182 178 175 168 160 154 144 120 119 138 135 101 73 173 179 145 253 198 209 205 156 132 231 99 23 32 114 237 127 237 261 249 253 278 249 247 230 232 261 289 304 303 298 305 311 318 323 315 307
180 178 179 181 181 178 175 172 166 161 161 151 133 116 115 95 108 80 230 149 236 230 142 179 165 126 102 106 111 123 142 81 271 131 217 254 255 274 263 202 210 223 249 267 282 296 309 308 299 300 308 316 315 307
176 175 177 178 177 174 171 165 163 157 144 127 92 95 135 151 157 199 188 202 196 185 164 151 144 143 129 146 138 131 174 217 102 221 241 239 291 340 235 223 244 255 268 276 277 288 296 305 306 298 294 305 309 300
171 172 174 173 171 170 164 161 151 150 133 110 136 136 201 178 226 189 232 180 130 152 156 151 140 140 98 153 134 192 213 235 229 230 236 243 260 141 70 273 272 288 299 302 287 284 292 303 298 294 292 297 304 300
168 169 168 168 165 162 160 157 160 158 109 126 140 174 192 244 161 179 98 108 129 144 143 122 113 129 120 131 192 209 203 234 224 228 242 301 343 337 330 324 316 303 301 298 300 297 293 296 291 291 294 293 302 297
163 159 163 159 159 160 158 159 170 137 98 134 167 163 157 190 201 188 177 149 155 158 149 163 147 164 189 199 179 209 222 217 233 208 260 320 322 320 318 314 307 306 302 301 299 297 297 295 290 295 293 294 301 295
158 153 159 157 158 157 158 156 150 135 154 169 217 205 192 210 210 187 182 176 166 167 181 144 186 200 145 210 210 223 209 218 265 291 299 297 300 300 303 309 305 302 299 295 296 295 293 292 291 290 282 295 300 294
155 156 155 157 157 155 153 150 130 143 150 205 208 214 196 204 160 150 171 168 168 184 213 212 199 183 194 200 211 228 244 263 276 284 288 294 296 295 305 305 301 299 295 295 292 289 292 291 288 288 288 292 296 291
157 154 158 160 158 144 127 155 163 158 182 173 208 216 196 214 196 174 180 186 192 204 227 204 236 217 224 243 256 263 269 277 282 284 287 297 299 300 300 297 295 293 291 291 295 291 287 287 291 291 287 289 289 289
156 156 160 163 158 115 112 124 169 157 175 188 191 202 190 202 203 212 208 212 213 219 226 227 231 243 253 248 255 265 274 278 286 292 292 295 297 296 293 292 291 291 291 291 291 290 288 287 288 290 284 288 286 279
151 157 163 160 148 107 117 145 152 169 155 176 194 197 215 235 239 239 243 240 229 223 239 244 252 252 255 262 267 269 273 278 279 280 286 292 295 292 291 290 289 290 290 290 290 289 288 287 289 289 287 278 280 283
149 161 156 164 126 162 146 171 145 143 146 158 174 192 198 206 221 238 241 237 239 243 238 248 253 258 264 265 270 275 279 280 282 284 287 289 288 290 289 289 290 287 285 287 288 293 294 295 293 285 279 279 257 275
152 153 141 142 129 159 168 168 148 162 152 179 174 182 212 215 206 203 209 229 244 251 251 252 256 260 263 271 276 280 282 281 280 279 279 281 283 283 284 287 287 287 288 289 289 285 295 300 297 293 276 265 263 260
149 136 122 154 156 159 157 170 160 169 167 174 180 199 197 205 188 198 241 250 249 257 259 263 264 265 269 270 271 275 280 281 273 268 269 274 278 281 284 284 283 283 284 283 291 302 306 310 312 296 283 269 257 252
119 160 160 167 176 150 166 141 168 175 173 179 202 197 203 195 166 206 237 262 268 255 256 263 265 266 264 270 274 277 275 269 266 266 272 272 273 280 283 283 282 294 295 295 302 306 306 309 309 299 282 272 262 247
179 190 184 179 157 168 163 155 177 167 174 181 193 212 171 163 182 231 236 240 252 262 249 253 266 267 264 261 266 267 257 257 268 269 284 285 276 275 283 290 306 311 306 303 306 309 308 306 305 304 281 263 260 261
185 175 175 170 168 172 176 181 161 164 181 190 178 156 153 212 227 234 229 241 253 261 262 259 288 272 262 259 266 262 258 262 272 279 279 278 281 280 283 288 299 302 311 321 320 321 318 313 306 296 276 261 254 248
182 158 159 178 178 187 169 184 181 184 177 178 172 181 193 208 226 206 211 241 254 242 232 266 277 273 279 267 262 262 268 274 279 287 297 299 302 305 290 298 298 305 319 320 318 322 330 335 329 306 266 255 241 227
181 174 145 172 171 165 209 199 213 210 196 185 191 189 217 224 242 258 267 270 271 256 252 258 276 280 267 262 258 264 267 267 270 259 274 237 249 255 294 303 311 309 319 324 320 326 336 342 349 333 271 243 225 234
192 182 182 176 190 204 199 203 226 226 219 221 221 236 251 258 263 267 265 269 272 268 263 268 273 269 259 255 260 268 267 260 260 239 228 237 249 276 314 316 330 328 321 317 320 345 352 348 352 6 16 44 193 200
180 191 220 195 214 224 223 228 227 224 225 223 226 234 246 259 264 267 267 267 264 262 265 262 257 249 239 236 234 232 231 255 255 252 241 253 269 277 297 307 313 319 325 324 301 315 336 342 343 349 14 51 137 187
186 201 212 211 218 215 209 210 212 216 223 216 223 224 234 246 256 270 254 251 256 258 257 245 238 234 239 241 240 233 232 245 258 262 268 259 263 271 282 307 313 309 304 302 296 301 305 316 328 340 324 271 198 196
200 210 219 238 177 181 191 178 195 212 201 217 231 226 217 217 242 247 247 230 232 232 229 224 214 223 233 228 220 220 223 234 255 270 280 279 283 281 255 277 295 288 298 314 328 303 305 313 295 297 310 275 225 220